Terminal Aerodrome Forecast
Issued by NWS Cleveland, OH

Home | Current Version | Previous Version | Graphics & Text | Print | Product List | Glossary On
Versions: 1 2 3 4 5 6 7 8 9 10 11 12 13 14 15 16 17 18 19 20
000
FTUS41 KCLE 201100
TAFYNG
TAF
KYNG 201134Z 2012/2112 00000KT 4SM BR BKN020
      TEMPO 2012/2013 2SM BR BKN002
     FM201300 16004KT P6SM BKN025
     FM202100 20006KT P6SM SCT050
     FM210900 13002KT 4SM BR SKC=

USA.gov is the U.S. government's official web portal to all federal, state and local government web resources and services.